Regional Weather Roundup
Issued by NWS

Home | Current Version | Previous Version | Text Only | Print | Product List | Glossary Off
Versions: 1 2 3 4 5 6 7 8 9 10 11 12 13 14 15 16 17 18 19 20 21 22 23 24 25 26 27 28 29 30 31 32 33 34 35 36 37 38 39 40 41 42 43 44 45 46 47 48 49 50

000
ASUS43 KMKX 171911
RWRWI

WISCONSIN REGIONAL WEATHER ROUNDUP
NATIONAL WEATHER SERVICE MILWAUKEE/SULLIVAN WI
100 PM CST FRI NOV 17 2017

NOTE: "FAIR" INDICATES FEW OR NO CLOUDS BELOW 12,000 FEET WITH NO
SIGNIFICANT WEATHER AND/OR OBSTRUCTIONS TO VISIBILITY.

WIZ001-002-006>008-014>016-023>028-172000-
NORTHWEST WISCONSIN

CITY           SKY/WX    TMP DP  RH WIND       PRES   REMARKS
SUPERIOR ARPT  CLOUDY    34  34 100 CALM      29.66F FOG
ASHLAND        CLOUDY    34  33  96 S5        29.68F FOG     WCI  30
HAYWARD        MIX PCPN  34  33  96 SW3       29.67F FOG
SIREN          CLOUDY    34  33  97 S3        29.67F FOG
CUMBERLAND     DRZL/FOG  32  32 100 SE3       29.66S VSB 1
RICE LAKE      DRIZZLE   34  34  99 SE5       29.68F WCI  30
CHETEK         DRIZZLE   34  34 100 SE5       29.67F WCI  30
LADYSMITH      CLOUDY    34  33  94 SE3       29.69F FOG
EAU CLAIRE     LGT SNOW  36  34  92 S7        29.67F FOG     WCI  30
MENOMONIE      DRIZZLE   36  36 100 E6        29.66F WCI  31
NEW RICHMOND   DRIZZLE   36  35  98 SE3       29.66S
OSCEOLA        LGT RAIN  36  36 100 CALM      29.69S
$$

WIZ003>005-009-010-017-018-172000-
NORTH CENTRAL WISCONSIN

CITY           SKY/WX    TMP DP  RH WIND       PRES   REMARKS
MANITOWISH WTR LGT RAIN  32  32 100 S8        29.67F WCI  25
ARBOR VITAE    MIX PCPN  34  33  94 S6        29.66F WCI  29
WOODRUFF       MIX PCPN  34  33  94 S6        29.66F WCI  29
RHINELANDER    CLOUDY    33  32  96 S9        29.67F FOG     WCI  25
EAGLE RIVER    MIX PCPN  32  32  99 S7        29.67F WCI  26
LAND O LAKES   MIX PCPN  33  32  96 S6        29.69F WCI  28
PHILLIPS       MIX PCPN  32  32 100 S7        29.67F WCI  26
TOMAHAWK       DRZL/FOG  32  31  96 SE3       29.68F VSB 1
MEDFORD        CLOUDY    32  31  96 S12       29.67F FOG     WCI  23
MERRILL        DRIZZLE   33  32  95 S7        29.70F WCI  27
$$

WIZ029-030-035-036-043>047-172000-
CENTRAL WISCONSIN

CITY           SKY/WX    TMP DP  RH WIND       PRES   REMARKS
WAUSAU         LGT RAIN  35  30  82 S15G22    29.70F WCI  25
MOSINEE        DRIZZLE   34  30  86 SE15      29.72F WCI  24
MARSHFIELD     CLOUDY    34  31  88 S15       29.68F FOG     WCI  24
STEVENS POINT  DRIZZLE   34  31  89 S12       29.73F WCI  25
WAUPACA        LGT RAIN  39  32  75 SE9       29.77F WCI  33
WAUTOMA        CLOUDY    37  29  72 S10       29.77F WCI  30
WISC RAPIDS    CLOUDY    36  31  82 S10G18    29.72F WCI  28
CAMP DOUGLAS   CLOUDY    37  34  87 SE9       29.71F WCI  31
$$

WIZ011>013-019>022-031-037>040-048>050-172000-
NORTHEAST WISCONSIN

CITY           SKY/WX    TMP DP  RH WIND       PRES   REMARKS
ANTIGO         CLOUDY    33  30  87 S15       29.71F WCI  23
SHAWANO        CLOUDY    40  32  71 S9G17     29.76F WCI  34
OCONTO         CLOUDY    41  34  77 S10G20    29.78F
STURGEON BAY   CLOUDY    41  36  82 S24G37    29.78F
GREEN BAY      CLOUDY    41  35  79 S18G25    29.79F
MANITOWOC      CLOUDY    41  36  82 S22G32    29.84F
APPLETON       LGT RAIN  37  30  75 S14       29.77F WCI  29
CLINTONVILLE   CLOUDY    37  32  81 S10G16    29.77F WCI  30
OSHKOSH        LGT RAIN  39  32  76 S14       29.79F WCI  31
$$

WIZ032>034-041-042-053>061-172000-
SOUTHWEST WISCONSIN

CITY           SKY/WX    TMP DP  RH WIND       PRES   REMARKS
LA CROSSE      CLOUDY    39  36  89 S13       29.67F WCI  31
SPARTA         CLOUDY    37  34  91 S10       29.70F WCI  29
VIROQUA        CLOUDY    35  35 100 SE15G21   29.68F WCI  25
BOSCOBEL       CLOUDY    38  35  89 S7        29.74F FOG     WCI  33
PRAIRIE DU CHI DRIZZLE   37  36  94 SE7       29.71F WCI  32
PLATTEVILLE    CLOUDY    37  37 100 S18       29.73F WCI  27
$$

WIZ056-057-062-063-064-067-068-172000-
SOUTH CENTRAL WISCONSIN

CITY           SKY/WX    TMP DP  RH WIND       PRES   REMARKS
REEDSBURG      DRIZZLE   36  32  86 S8        29.74F WCI  29
BARABOO/DELLS  LGT RAIN  36  31  83 S13G21    29.75F WCI  27
LONE ROCK      CLOUDY    37  35  92 SE8       29.75F FOG     WCI  31
MINERAL POINT  CLOUDY    36  36 100 SE15      29.73F FOG     WCI  26
MADISON        CLOUDY    38  30  73 S17G32    29.78F WCI  28
MIDDLETON      CLOUDY    39  32  76 S16G22    29.77F WCI  30
WATERTOWN      LGT RAIN  38  34  87 SE9G17    29.81F WCI  31
MONROE         CLOUDY    36  32  87 SE17      29.77F WCI  25
JANESVILLE     DRIZZLE   39  34  81 S13G18    29.82F WCI  32
$$

WIZ051-052-058>065-066-070>072-172000-
SOUTHEAST WISCONSIN

CITY           SKY/WX    TMP DP  RH WIND       PRES   REMARKS
MILWAUKEE      CLOUDY    41  34  76 S14G21    29.87F
WAUKESHA       CLOUDY    37  28  70 SE12      29.86  WCI  30
MILWAUKEE/TIMM CLOUDY    39  28  65 S12       29.87F WCI  32
RACINE         CLOUDY    41  34  76 S17G26    29.89F
BURLINGTON     CLOUDY    42  35  75 S7        29.85F
KENOSHA        CLOUDY    42  31  64 S9        29.87F
FOND DU LAC    CLOUDY    40  29  64 S16       29.80F WCI  31
SHEBOYGAN      CLOUDY    40  36  86 S22G30    29.84F WCI  30
WEST BEND      CLOUDY    37  32  81 S8        29.84F WCI  31
JUNEAU         CLOUDY    37  31  77 SE14G20   29.81F WCI  29
$$

LSZ147-162-172000-
LAKE SUPERIOR

STATION/POSITION TIME  TEMP    WIND        PRES    WAVE
                       AIR SEA DIR/SP/G            HT/PER
                 (UTC) (F)     (DEG/KT/KT) (MB)    (FT/S)
DEVILS ISLAND    1900   34     200/  5/  6 1005.5F
SAXON HARBOR     1830   36     210/  4/ 10 1005.4S
$$

LMZ867-665-643>646-172000-
LAKE MICHIGAN

STATION/POSITION TIME  TEMP    WIND        PRES    WAVE
                       AIR SEA DIR/SP/G            HT/PER
                 (UTC) (F)     (DEG/KT/KT) (MB)    (FT/S)
N MID LAKE BUOY  1850   41 49  170/ 25/ 31 1011.3F   7/ 6
NORTHPORT PIER   1840   42     160/ 14/ 24 1009.8F
KEWAUNEE LAKESHO 1830   41     170/ 27/ 32 1010.2F
SHEBOYGAN LAKESH 1900   41     170/ 30/ 33 1010.3F
PORT WASHINGTON  1840   41     180/ 16/ 25 1012.2F
MILWAUKEE LAKESH 1850   40     170/ 16/ 18   N/A
S MID LAKE BUOY  1850   43 50  130/ 23/ 27 1012.4F   6/ 6
KENOSHA   LAKESH 1900   41     170/ 22/ 25 1011.5
$$

TC  - TEMPERATURE IN CELSIUS
VSB - VISIBILITY IN STATUTE MILES
WCI - WIND CHILL INDEX
HX  - HEAT INDEX





USA.gov is the U.S. government's official web portal to all federal, state and local government web resources and services.